Showing default

BALKAN-2, 69024

Orbit data source: Space-Track

BALKAN-2, 69024 is a payload satellite owned by Endurosat (BG) in SSO that was launched on Sun, 03 May 2026 UTC via an FALCON 9 launch vehicle from the Air Force Western Test Range (AFWTR). Payload-class satellites include a variety of spacecraft equipped with specific instruments for various scientific and technological missions. These include communications satellites like Starlink; space stations such as the ISS; scientific satellites like the Hubble; Earth observation satellites from companies like Planet Labs, Umbra, and HawkEye 360; GPS; miniature CubeSats for education and research; and military/defense satellites.

Loading next visibility...
Identifier
69024, 2026-100AW
Orbit
SSO
Country
Flag of BGBG / BGR
Related business
Manufacturer
Endurosat
Mission
Operational Commercial Imaging
Bus & Motor
CUBESAT 16U, Unknown motor
Mass
32 kg wet, 32 kg dry
Launch date (UTC)
2026-05-03 (3 months ago)
Launch vehicle
FALCON 9
Launch site
Air Force Western Test Range (AFWTR)
Object type
Payload
Rocket body
Debris
Shape & HBR
Box + 2 Pan, 14.5 m
Radar Cross Section
0.124 m², Medium (>0.1 m² and < 1m²)

Expand to show TLE details & history
Last TLE update: 9 hours ago

TLE from 9 hours ago
0 BALKAN-2
1 69024U 26100AW  26221.67797420  .00003054  00000-0  14254-3 0  9996
2 69024  97.3999 118.5237 0003868 144.1752 215.9743 15.20576301 14933
Epoch: 2026-08-09T16:16Z
TLE epoch observation values (Epoch: 2026-08-09T16:16:16.970Z)
Latitude
-0.0001°
Longitude
-83.71852°
Altitude
509.348 km
Speed
7.608 km/s
True Right ascension
07h 54m 05s
True Declination
0° 00' 00"
Sunlit
Object was in daylight at epoch
Visualization orbit readout
Latitude
Unknown
Longitude
Unknown
Altitude
Unknown
Speed
Unknown
Apparent Right ascension
Unknown
Apparent Declination
Unknown
Sunlit
N/A
Visualization observer readout
Local Sidereal Time
15:42:02
Azimuth
Unknown
Elevation
Unknown
Doppler factor
Unknown
Orbital elements
Apogee altitude
503.727 km
Perigee altitude
498.405 km
Semi-major axis
6,879.203 km
Eccentricity
0.00039
Inclination
97.3999°
RAAN
118.5237°
Arg. of periapsis
144.1752°
True anomaly
215.94827°
Mean anomaly
215.9743°
Eccentric anomaly
215.96129°
Mean motion
3.80396 °/min
Orbital period
94.64 mins
BSTAR
0.00014254
Loading maneuver chart data...
Computing Atmospheric mass density...
Loading historical data...
Loading historical data...
Loading historical data...
Loading historical data...
Loading historical data...
Loading historical data...
Loading historical data...

Documentation

Showing up to 5 results
|